Regional Weather Roundup
Issued by NWS

Home | Current Version | Previous Version | Graphics & Text | Print | Product List | Glossary On
Versions: 1 2 3 4 5 6 7 8 9 10 11 12 13 14 15 16 17 18 19 20 21 22 23 24 25 26 27
000
ASUS45 KTFX 220510
RWRMT
MONTANA REGIONAL WEATHER ROUNDUP
NATIONAL WEATHER SERVICE GREAT FALLS MT
1100 PM MDT MON MAY 21 2018

NOTE: "FAIR" INDICATES FEW OR NO CLOUDS BELOW 12000 FEET WITH NO
SIGNIFICANT WEATHER AND/OR OBSTRUCTIONS TO VISIBILITY.

MTZ001>007-043-220600-
WEST OF THE DIVIDE

CITY           SKY/WX    TMP DP  RH WIND       PRES   REMARKS
KALISPELL      FAIR      53  47  79 CALM      29.93R
MISSOULA       FAIR      56  49  77 N6        29.98R
BUTTE          CLOUDY    53  46  77 SE6       30.05R
MULLAN PASS    FAIR      50  43  77 NW6       30.07S
ANACONDA         N/A     54  46  76 CALM      30.04R
DEER LODGE       N/A     55  52  88 CALM      30.04S
HAMILTON         N/A     61  52  72 MISG      29.99R
PLAINS           N/A     58  53  83 CALM      29.96S
RONAN            N/A     57  50  77 S7        29.96R
$$

MTZ008-052>055-220600-
SOUTHWEST MONTANA

CITY           SKY/WX    TMP DP  RH WIND       PRES   REMARKS
BOZEMAN        CLOUDY    53  50  89 SE3       30.01S
DILLON         MOCLDY    51  47  86 E8        30.02R
ENNIS          MOCLDY    48  46  93 SE7       30.06S
W YELLOWSTONE  MOCLDY    45  45 100 CALM      30.07R
TWIN BRIDGES     N/A     55  46  71 N6        30.00R
$$

MTZ009-010-012-014-046-048-049-054-220600-
EAST SLOPES AND CENTRAL MONTANA

CITY           SKY/WX    TMP DP  RH WIND       PRES   REMARKS
CUT BANK       FAIR      55  45  68 W8        29.96R
GREAT FALLS    CLOUDY    60  51  72 W6        29.95R
MALMSTROM AFB  CLOUDY    62  52  70 SW6       29.95R
HELENA         CLOUDY    58  50  75 SW5       29.99R
AUGUSTA        MOCLDY    55  46  70 NW10      29.98S
BOWMANS CRNR   MOCLDY    56  45  64 NW9       29.97R
CHOTEAU          N/A     59  48  67 SW6       29.98S
POWER          MOCLDY    58  47  68 NW6       29.95R
RAYNESFORD     CLOUDY    59  50  72 SW3       29.97S
ULM            MOCLDY    57  50  77 CALM      29.96R
WHITE SULPHUR    N/A     54  50  87 NE3       30.01S
$$

MTZ011-013-016-021-045-047-050-051-220600-
NORTH CENTRAL MONTANA

CITY           SKY/WX    TMP DP  RH WIND       PRES   REMARKS
HAVRE          FAIR      59  54  83 SW6       29.88R
LEWISTOWN      FAIR      54  51  90 VRB3      29.98R
N BAR RANCH    FAIR      55  50  82 W12       30.01S
CHINOOK          N/A     63  54  72 CALM      29.87S
DENTON         MOCLDY    58  52  80 SW8       29.92R
GEYSER         FAIR      58  46  64 SW13      29.96S
GRASS RANGE    FAIR      56  51  83 W3        29.93S
JUDITH GAP     MOCLDY    53  50  90 S3        30.00S
ROY            MOCLDY    57  51  78 W8        29.92F
STANFORD       MOCLDY    56  47  73 W13       29.98S
WINIFRED       CLOUDY    61  50  67 SW10      29.94S
$$

MTZ017>020-022>027-061-062-220600-
NORTHEAST MONTANA

CITY           SKY/WX    TMP DP  RH WIND       PRES   REMARKS
GLASGOW        FAIR      66  48  52 NE9       29.85F
GLENDIVE       FAIR      61  51  70 NE3       29.89R
JORDAN           N/A     63  53  70 CALM      29.88R
MALTA          CLOUDY    64  50  59 S5        29.84S
SIDNEY         FAIR      55  47  74 CALM      29.87S
WOLF POINT     FAIR      61  53  75 CALM      29.84S
PLENTYWOOD       N/A     70  45  40 CALM      29.86S
POPLAR           N/A     64  50  59 SE6       29.85S
SCOBEY           N/A     63  43  48 S1        29.88R
$$

MTZ028>42-056>058-220600-
SOUTHCENTRAL AND SOUTHEAST MONTANA

CITY           SKY/WX    TMP DP  RH WIND       PRES   REMARKS
BAKER          FAIR      57  51  80 SE6       29.92R
BILLINGS       MOCLDY    61  49  64 S6        29.97R
LIVINGSTON     FAIR      54  51  90 E7        30.01S
MILES CITY     FAIR      66  55  67 S6        29.88R
BIG TIMBER     MOCLDY    54  52  94 CALM      30.02F
EKALAKA          N/A     61  48  62 SE8       29.92R
FORSYTH          N/A     64  55  72 MISG      29.90R
HARLOWTON      MOCLDY    55  51  89 NW8       30.00S
LAUREL           N/A     59  52  77 CALM      29.98R
$$

REGIONAL REPORTS...DAKOTAS

CITY           SKY/WX    TMP DP  RH WIND       PRES   REMARKS
WILLISTON      FAIR      54  46  74 SE3       29.86S
MINOT          FAIR      61  50  67 SE8       29.88S
DICKINSON      FAIR      54  32  43 S6        29.90S
BEACH          FAIR      55  50  82 S5        29.93F
CROSBY         FAIR      59  39  47 S10       29.86R
TIOGA          FAIR      59  39  47 S13       29.89S
WATFORD CITY   FAIR      59  36  41 SE6       29.88R
BISMARCK       FAIR      60  51  72 CALM      29.93S
GRAND FORKS    FAIR      57  53  86 S8        29.94R
FARGO          FAIR      59  54  83 S9        29.97S
BUFFALO SD       N/A     60  49  66 E9        29.86S
RAPID CITY     FAIR      56  51  84 CALM      29.92F
$$

REGIONAL REPORTS...WYOMING/IDAHO/WASHINGTON

CITY           SKY/WX    TMP DP  RH WIND       PRES   REMARKS
GILLETTE       FAIR      63  43  48 SW18G31   29.96R
SHERIDAN       LGT RAIN  56  50  80 NW6       29.95R
BUFFALO WY     MOCLDY    60  46  59 W9        30.00R
CODY           FAIR      52  46  80 CALM      30.03R
YELLOWSTONE LA   N/A     39  33  79 NW3       30.16R
IDAHO FALLS    FAIR      58  47  66 SE3       29.96R
SALMON         CLOUDY    58  51  78 S5        29.96R
BOISE          FAIR      67  51  56 NW6       29.86R
SPOKANE        FAIR      67  50  54 SW7       29.93R
$$

REGIONAL REPORTS...ALBERTA

CITY           SKY/WX    TMP DP  RH WIND       PRES   REMARKS
CALGARY        PTCLDY    61  39  44 E7        29.95R
CARDSTON         N/A     55  43  62 SW3         N/A
EDMONTON       CLEAR     55  37  50 NE5       29.87R
FORT MCMURRAY  PTCLDY    68  43  40 SW10      29.78R
HIGH LEVEL     CLOUDY    70  50  49 N3        29.69R
LETHBRIDGE     MOCLDY    59  41  51 SE5       29.91R
LLOYDMINSTER   MOCLDY    52  43  71 W5        29.84F
MEDICINE HAT   CLEAR     66  43  42 N5        29.87R
MILK RIVER       N/A     52  46  82 W3          N/A
ONEFOUR          N/A     63  46  55 NW6         N/A
PEACE RIVER    MOCLDY    59  37  44 W7        29.83R
PINCHER CREEK  CLOUDY    55  43  62 SW8       29.96R
WATERTON GATE    N/A     54  39  58 SW7         N/A
$$

REGIONAL REPORTS...SASKATCHEWAN

CITY           SKY/WX    TMP DP  RH WIND       PRES   REMARKS
CORONACH         N/A     59  48  67 W5          N/A
CYPRESS HILLS    N/A     61  39  44 NW2         N/A
ESTEVAN        PTCLDY    61  39  44 S9        29.84S
PRINCE ALBERT  MOCLDY    52  45  76 W2        29.80R
REGINA         CLOUDY    68  41  37 SW7       29.79R
ROCKGLEN         N/A     61  46  59 SW10        N/A
SASKATOON      PTCLDY    64  43  45 VRB10     29.79R
SWIFT CURRENT  CLOUDY    61  48  63 SW9       29.83R
VAL MARIE        N/A     61  46  59 SE14        N/A
$$




USA.gov is the U.S. government's official web portal to all federal, state and local government web resources and services.